Index of /20260416/WXO-DD/model_rdps/10km/00/022
Name Last modified Size Description
Parent Directory -
20260416T00Z_MSC_RDPS_AbsoluteVorticity_IsbL-0250_RLatLon0.09_PT022H.grib2 2026-04-16 02:49 594K
20260416T00Z_MSC_RDPS_AbsoluteVorticity_IsbL-0500_RLatLon0.09_PT022H.grib2 2026-04-16 02:49 553K
20260416T00Z_MSC_RDPS_AbsoluteVorticity_IsbL-0700_RLatLon0.09_PT022H.grib2 2026-04-16 02:49 616K
20260416T00Z_MSC_RDPS_AbsoluteVorticity_IsbL-0850_RLatLon0.09_PT022H.grib2 2026-04-16 02:49 779K
20260416T00Z_MSC_RDPS_AirTemp_AGL-120m_RLatLon0.09_PT022H.grib2 2026-04-16 02:49 396K
20260416T00Z_MSC_RDPS_AirTemp_AGL-2m_RLatLon0.09_PT022H.grib2 2026-04-16 02:49 632K
20260416T00Z_MSC_RDPS_AirTemp_AGL-40m_RLatLon0.09_PT022H.grib2 2026-04-16 02:49 406K
20260416T00Z_MSC_RDPS_AirTemp_AGL-80m_RLatLon0.09_PT022H.grib2 2026-04-16 02:49 400K
20260416T00Z_MSC_RDPS_AirTemp_IsbL-0001_RLatLon0.09_PT022H.grib2 2026-04-16 02:49 310K
20260416T00Z_MSC_RDPS_AirTemp_IsbL-0005_RLatLon0.09_PT022H.grib2 2026-04-16 02:49 251K
20260416T00Z_MSC_RDPS_AirTemp_IsbL-0010_RLatLon0.09_PT022H.grib2 2026-04-16 02:49 339K
20260416T00Z_MSC_RDPS_AirTemp_IsbL-0020_RLatLon0.09_PT022H.grib2 2026-04-16 02:49 358K
20260416T00Z_MSC_RDPS_AirTemp_IsbL-0030_RLatLon0.09_PT022H.grib2 2026-04-16 02:49 381K
20260416T00Z_MSC_RDPS_AirTemp_IsbL-0050_RLatLon0.09_PT022H.grib2 2026-04-16 02:49 331K
20260416T00Z_MSC_RDPS_AirTemp_IsbL-0100_RLatLon0.09_PT022H.grib2 2026-04-16 02:49 426K
20260416T00Z_MSC_RDPS_AirTemp_IsbL-0150_RLatLon0.09_PT022H.grib2 2026-04-16 02:49 404K
20260416T00Z_MSC_RDPS_AirTemp_IsbL-0175_RLatLon0.09_PT022H.grib2 2026-04-16 02:49 403K
20260416T00Z_MSC_RDPS_AirTemp_IsbL-0200_RLatLon0.09_PT022H.grib2 2026-04-16 02:49 410K
20260416T00Z_MSC_RDPS_AirTemp_IsbL-0225_RLatLon0.09_PT022H.grib2 2026-04-16 02:49 410K
20260416T00Z_MSC_RDPS_AirTemp_IsbL-0250_RLatLon0.09_PT022H.grib2 2026-04-16 02:49 419K
20260416T00Z_MSC_RDPS_AirTemp_IsbL-0275_RLatLon0.09_PT022H.grib2 2026-04-16 02:49 401K
20260416T00Z_MSC_RDPS_AirTemp_IsbL-0300_RLatLon0.09_PT022H.grib2 2026-04-16 02:49 433K
20260416T00Z_MSC_RDPS_AirTemp_IsbL-0350_RLatLon0.09_PT022H.grib2 2026-04-16 02:49 419K
20260416T00Z_MSC_RDPS_AirTemp_IsbL-0400_RLatLon0.09_PT022H.grib2 2026-04-16 02:49 386K
20260416T00Z_MSC_RDPS_AirTemp_IsbL-0450_RLatLon0.09_PT022H.grib2 2026-04-16 02:49 393K
20260416T00Z_MSC_RDPS_AirTemp_IsbL-0500_RLatLon0.09_PT022H.grib2 2026-04-16 02:49 405K
20260416T00Z_MSC_RDPS_AirTemp_IsbL-0550_RLatLon0.09_PT022H.grib2 2026-04-16 02:49 424K
20260416T00Z_MSC_RDPS_AirTemp_IsbL-0600_RLatLon0.09_PT022H.grib2 2026-04-16 02:49 441K
20260416T00Z_MSC_RDPS_AirTemp_IsbL-0650_RLatLon0.09_PT022H.grib2 2026-04-16 02:49 453K
20260416T00Z_MSC_RDPS_AirTemp_IsbL-0700_RLatLon0.09_PT022H.grib2 2026-04-16 02:49 372K
20260416T00Z_MSC_RDPS_AirTemp_IsbL-0750_RLatLon0.09_PT022H.grib2 2026-04-16 02:49 407K
20260416T00Z_MSC_RDPS_AirTemp_IsbL-0800_RLatLon0.09_PT022H.grib2 2026-04-16 02:49 451K
20260416T00Z_MSC_RDPS_AirTemp_IsbL-0850_RLatLon0.09_PT022H.grib2 2026-04-16 02:49 498K
20260416T00Z_MSC_RDPS_AirTemp_IsbL-0875_RLatLon0.09_PT022H.grib2 2026-04-16 02:49 527K
20260416T00Z_MSC_RDPS_AirTemp_IsbL-0900_RLatLon0.09_PT022H.grib2 2026-04-16 02:49 537K
20260416T00Z_MSC_RDPS_AirTemp_IsbL-0925_RLatLon0.09_PT022H.grib2 2026-04-16 02:49 541K
20260416T00Z_MSC_RDPS_AirTemp_IsbL-0950_RLatLon0.09_PT022H.grib2 2026-04-16 02:49 538K
20260416T00Z_MSC_RDPS_AirTemp_IsbL-0970_RLatLon0.09_PT022H.grib2 2026-04-16 02:49 535K
20260416T00Z_MSC_RDPS_AirTemp_IsbL-0985_RLatLon0.09_PT022H.grib2 2026-04-16 02:49 527K
20260416T00Z_MSC_RDPS_AirTemp_IsbL-1000_RLatLon0.09_PT022H.grib2 2026-04-16 02:49 513K
20260416T00Z_MSC_RDPS_AirTemp_IsbL-1015_RLatLon0.09_PT022H.grib2 2026-04-16 02:49 509K
20260416T00Z_MSC_RDPS_Albedo_Sfc_RLatLon0.09_PT022H.grib2 2026-04-16 02:49 163K
20260416T00Z_MSC_RDPS_CAPE_Sfc_RLatLon0.09_PT022H.grib2 2026-04-16 02:49 1.7M
20260416T00Z_MSC_RDPS_CIN_Sfc_RLatLon0.09_PT022H.grib2 2026-04-16 02:49 1.3M
20260416T00Z_MSC_RDPS_CloudWater_EAtm_RLatLon0.09_PT022H.grib2 2026-04-16 02:49 213K
20260416T00Z_MSC_RDPS_ConvectivePrecip-Accum_Sfc_RLatLon0.09_PT022H.grib2 2026-04-16 02:49 819K
20260416T00Z_MSC_RDPS_DewPointDepression_AGL-2m_RLatLon0.09_PT022H.grib2 2026-04-16 02:49 408K
20260416T00Z_MSC_RDPS_DewPointDepression_IsbL-0001_RLatLon0.09_PT022H.grib2 2026-04-16 02:49 193
20260416T00Z_MSC_RDPS_DewPointDepression_IsbL-0005_RLatLon0.09_PT022H.grib2 2026-04-16 02:49 193
20260416T00Z_MSC_RDPS_DewPointDepression_IsbL-0010_RLatLon0.09_PT022H.grib2 2026-04-16 02:49 193
20260416T00Z_MSC_RDPS_DewPointDepression_IsbL-0020_RLatLon0.09_PT022H.grib2 2026-04-16 02:49 193
20260416T00Z_MSC_RDPS_DewPointDepression_IsbL-0030_RLatLon0.09_PT022H.grib2 2026-04-16 02:49 9.5K
20260416T00Z_MSC_RDPS_DewPointDepression_IsbL-0050_RLatLon0.09_PT022H.grib2 2026-04-16 02:49 105K
20260416T00Z_MSC_RDPS_DewPointDepression_IsbL-0100_RLatLon0.09_PT022H.grib2 2026-04-16 02:49 123K
20260416T00Z_MSC_RDPS_DewPointDepression_IsbL-0150_RLatLon0.09_PT022H.grib2 2026-04-16 02:49 146K
20260416T00Z_MSC_RDPS_DewPointDepression_IsbL-0175_RLatLon0.09_PT022H.grib2 2026-04-16 02:49 175K
20260416T00Z_MSC_RDPS_DewPointDepression_IsbL-0200_RLatLon0.09_PT022H.grib2 2026-04-16 02:49 207K
20260416T00Z_MSC_RDPS_DewPointDepression_IsbL-0225_RLatLon0.09_PT022H.grib2 2026-04-16 02:49 247K
20260416T00Z_MSC_RDPS_DewPointDepression_IsbL-0250_RLatLon0.09_PT022H.grib2 2026-04-16 02:49 295K
20260416T00Z_MSC_RDPS_DewPointDepression_IsbL-0275_RLatLon0.09_PT022H.grib2 2026-04-16 02:49 305K
20260416T00Z_MSC_RDPS_DewPointDepression_IsbL-0300_RLatLon0.09_PT022H.grib2 2026-04-16 02:49 320K
20260416T00Z_MSC_RDPS_DewPointDepression_IsbL-0350_RLatLon0.09_PT022H.grib2 2026-04-16 02:49 321K
20260416T00Z_MSC_RDPS_DewPointDepression_IsbL-0400_RLatLon0.09_PT022H.grib2 2026-04-16 02:49 332K
20260416T00Z_MSC_RDPS_DewPointDepression_IsbL-0450_RLatLon0.09_PT022H.grib2 2026-04-16 02:49 340K
20260416T00Z_MSC_RDPS_DewPointDepression_IsbL-0500_RLatLon0.09_PT022H.grib2 2026-04-16 02:49 348K
20260416T00Z_MSC_RDPS_DewPointDepression_IsbL-0550_RLatLon0.09_PT022H.grib2 2026-04-16 02:49 364K
20260416T00Z_MSC_RDPS_DewPointDepression_IsbL-0600_RLatLon0.09_PT022H.grib2 2026-04-16 02:49 380K
20260416T00Z_MSC_RDPS_DewPointDepression_IsbL-0650_RLatLon0.09_PT022H.grib2 2026-04-16 02:49 388K
20260416T00Z_MSC_RDPS_DewPointDepression_IsbL-0700_RLatLon0.09_PT022H.grib2 2026-04-16 02:49 397K
20260416T00Z_MSC_RDPS_DewPointDepression_IsbL-0750_RLatLon0.09_PT022H.grib2 2026-04-16 02:49 420K
20260416T00Z_MSC_RDPS_DewPointDepression_IsbL-0800_RLatLon0.09_PT022H.grib2 2026-04-16 02:49 450K
20260416T00Z_MSC_RDPS_DewPointDepression_IsbL-0850_RLatLon0.09_PT022H.grib2 2026-04-16 02:49 471K
20260416T00Z_MSC_RDPS_DewPointDepression_IsbL-0875_RLatLon0.09_PT022H.grib2 2026-04-16 02:49 469K
20260416T00Z_MSC_RDPS_DewPointDepression_IsbL-0900_RLatLon0.09_PT022H.grib2 2026-04-16 02:49 464K
20260416T00Z_MSC_RDPS_DewPointDepression_IsbL-0925_RLatLon0.09_PT022H.grib2 2026-04-16 02:49 453K
20260416T00Z_MSC_RDPS_DewPointDepression_IsbL-0950_RLatLon0.09_PT022H.grib2 2026-04-16 02:49 442K
20260416T00Z_MSC_RDPS_DewPointDepression_IsbL-0970_RLatLon0.09_PT022H.grib2 2026-04-16 02:49 433K
20260416T00Z_MSC_RDPS_DewPointDepression_IsbL-0985_RLatLon0.09_PT022H.grib2 2026-04-16 02:49 426K
20260416T00Z_MSC_RDPS_DewPointDepression_IsbL-1000_RLatLon0.09_PT022H.grib2 2026-04-16 02:49 424K
20260416T00Z_MSC_RDPS_DewPointDepression_IsbL-1015_RLatLon0.09_PT022H.grib2 2026-04-16 02:49 415K
20260416T00Z_MSC_RDPS_DewPoint_AGL-2m_RLatLon0.09_PT022H.grib2 2026-04-16 02:49 401K
20260416T00Z_MSC_RDPS_DownwardLongwaveRadiationFlux-Accum_Sfc_RLatLon0.09_PT022H.grib2 2026-04-16 02:49 425K
20260416T00Z_MSC_RDPS_DownwardShortwaveRadiationFlux-Accum_NTAtm_RLatLon0.09_PT022H.grib2 2026-04-16 02:49 101K
20260416T00Z_MSC_RDPS_DownwardShortwaveRadiationFlux-Accum_Sfc_RLatLon0.09_PT022H.grib2 2026-04-16 02:49 599K
20260416T00Z_MSC_RDPS_FreezingRain-Accum1h_Sfc_RLatLon0.09_PT022H.grib2 2026-04-16 02:49 22K
20260416T00Z_MSC_RDPS_FreezingRain-Accum_Sfc_RLatLon0.09_PT022H.grib2 2026-04-16 02:49 95K
20260416T00Z_MSC_RDPS_GeopotentialHeight_IsbL-0001_RLatLon0.09_PT022H.grib2 2026-04-16 02:49 207K
20260416T00Z_MSC_RDPS_GeopotentialHeight_IsbL-0005_RLatLon0.09_PT022H.grib2 2026-04-16 02:49 264K
20260416T00Z_MSC_RDPS_GeopotentialHeight_IsbL-0010_RLatLon0.09_PT022H.grib2 2026-04-16 02:49 306K
20260416T00Z_MSC_RDPS_GeopotentialHeight_IsbL-0020_RLatLon0.09_PT022H.grib2 2026-04-16 02:49 334K
20260416T00Z_MSC_RDPS_GeopotentialHeight_IsbL-0030_RLatLon0.09_PT022H.grib2 2026-04-16 02:49 337K
20260416T00Z_MSC_RDPS_GeopotentialHeight_IsbL-0050_RLatLon0.09_PT022H.grib2 2026-04-16 02:49 238K
20260416T00Z_MSC_RDPS_GeopotentialHeight_IsbL-0100_RLatLon0.09_PT022H.grib2 2026-04-16 02:49 223K
20260416T00Z_MSC_RDPS_GeopotentialHeight_IsbL-0150_RLatLon0.09_PT022H.grib2 2026-04-16 02:49 264K
20260416T00Z_MSC_RDPS_GeopotentialHeight_IsbL-0175_RLatLon0.09_PT022H.grib2 2026-04-16 02:49 265K
20260416T00Z_MSC_RDPS_GeopotentialHeight_IsbL-0200_RLatLon0.09_PT022H.grib2 2026-04-16 02:49 267K
20260416T00Z_MSC_RDPS_GeopotentialHeight_IsbL-0225_RLatLon0.09_PT022H.grib2 2026-04-16 02:49 268K
20260416T00Z_MSC_RDPS_GeopotentialHeight_IsbL-0250_RLatLon0.09_PT022H.grib2 2026-04-16 02:49 269K
20260416T00Z_MSC_RDPS_GeopotentialHeight_IsbL-0275_RLatLon0.09_PT022H.grib2 2026-04-16 02:49 267K
20260416T00Z_MSC_RDPS_GeopotentialHeight_IsbL-0300_RLatLon0.09_PT022H.grib2 2026-04-16 02:49 266K
20260416T00Z_MSC_RDPS_GeopotentialHeight_IsbL-0350_RLatLon0.09_PT022H.grib2 2026-04-16 02:49 263K
20260416T00Z_MSC_RDPS_GeopotentialHeight_IsbL-0400_RLatLon0.09_PT022H.grib2 2026-04-16 02:49 228K
20260416T00Z_MSC_RDPS_GeopotentialHeight_IsbL-0450_RLatLon0.09_PT022H.grib2 2026-04-16 02:49 224K
20260416T00Z_MSC_RDPS_GeopotentialHeight_IsbL-0500_RLatLon0.09_PT022H.grib2 2026-04-16 02:49 290K
20260416T00Z_MSC_RDPS_GeopotentialHeight_IsbL-0550_RLatLon0.09_PT022H.grib2 2026-04-16 02:49 286K
20260416T00Z_MSC_RDPS_GeopotentialHeight_IsbL-0600_RLatLon0.09_PT022H.grib2 2026-04-16 02:49 284K
20260416T00Z_MSC_RDPS_GeopotentialHeight_IsbL-0650_RLatLon0.09_PT022H.grib2 2026-04-16 02:49 281K
20260416T00Z_MSC_RDPS_GeopotentialHeight_IsbL-0700_RLatLon0.09_PT022H.grib2 2026-04-16 02:49 252K
20260416T00Z_MSC_RDPS_GeopotentialHeight_IsbL-0750_RLatLon0.09_PT022H.grib2 2026-04-16 02:49 253K
20260416T00Z_MSC_RDPS_GeopotentialHeight_IsbL-0800_RLatLon0.09_PT022H.grib2 2026-04-16 02:49 341K
20260416T00Z_MSC_RDPS_GeopotentialHeight_IsbL-0850_RLatLon0.09_PT022H.grib2 2026-04-16 02:49 382K
20260416T00Z_MSC_RDPS_GeopotentialHeight_IsbL-0875_RLatLon0.09_PT022H.grib2 2026-04-16 02:49 386K
20260416T00Z_MSC_RDPS_GeopotentialHeight_IsbL-0900_RLatLon0.09_PT022H.grib2 2026-04-16 02:49 390K
20260416T00Z_MSC_RDPS_GeopotentialHeight_IsbL-0925_RLatLon0.09_PT022H.grib2 2026-04-16 02:49 394K
20260416T00Z_MSC_RDPS_GeopotentialHeight_IsbL-0950_RLatLon0.09_PT022H.grib2 2026-04-16 02:49 396K
20260416T00Z_MSC_RDPS_GeopotentialHeight_IsbL-0970_RLatLon0.09_PT022H.grib2 2026-04-16 02:49 403K
20260416T00Z_MSC_RDPS_GeopotentialHeight_IsbL-0985_RLatLon0.09_PT022H.grib2 2026-04-16 02:49 413K
20260416T00Z_MSC_RDPS_GeopotentialHeight_IsbL-1000_RLatLon0.09_PT022H.grib2 2026-04-16 02:49 427K
20260416T00Z_MSC_RDPS_GeopotentialHeight_IsbL-1015_RLatLon0.09_PT022H.grib2 2026-04-16 02:49 442K
20260416T00Z_MSC_RDPS_Humidex_Sfc_RLatLon0.09_PT022H.grib2 2026-04-16 02:49 2.4M
20260416T00Z_MSC_RDPS_IcePellets-Accum1h_Sfc_RLatLon0.09_PT022H.grib2 2026-04-16 02:49 6.1K
20260416T00Z_MSC_RDPS_IcePellets-Accum_Sfc_RLatLon0.09_PT022H.grib2 2026-04-16 02:49 21K
20260416T00Z_MSC_RDPS_KIndex_Sfc_RLatLon0.09_PT022H.grib2 2026-04-16 02:49 2.4M
20260416T00Z_MSC_RDPS_LatentHeatNetFlux_Sfc_RLatLon0.09_PT022H.grib2 2026-04-16 02:49 357K
20260416T00Z_MSC_RDPS_LiftedIndex-MU-VT_IsbL-0500_RLatLon0.09_PT022H.grib2 2026-04-16 02:49 2.4M
20260416T00Z_MSC_RDPS_NetLongwaveRadiationFlux-Accum_Sfc_RLatLon0.09_PT022H.grib2 2026-04-16 02:49 561K
20260416T00Z_MSC_RDPS_NetShortwaveRadiationFlux-Accum_Sfc_RLatLon0.09_PT022H.grib2 2026-04-16 02:49 603K
20260416T00Z_MSC_RDPS_PlanetaryBoundaryLayerHeight_Sfc_RLatLon0.09_PT022H.grib2 2026-04-16 02:49 1.0M
20260416T00Z_MSC_RDPS_Precip-Accum1h_Sfc_RLatLon0.09_PT022H.grib2 2026-04-16 02:49 1.2M
20260416T00Z_MSC_RDPS_Precip-Accum_Sfc_RLatLon0.09_PT022H.grib2 2026-04-16 02:49 1.9M
20260416T00Z_MSC_RDPS_PrecipRate_Sfc_RLatLon0.09_PT022H.grib2 2026-04-16 02:49 154K
20260416T00Z_MSC_RDPS_PrecipType-Instant_Sfc_RLatLon0.09_PT022H.grib2 2026-04-16 02:49 559K
20260416T00Z_MSC_RDPS_Pressure-Trend3h_Sfc_RLatLon0.09_PT022H.grib2 2026-04-16 02:49 1.2M
20260416T00Z_MSC_RDPS_Pressure_MSL_RLatLon0.09_PT022H.grib2 2026-04-16 02:49 296K
20260416T00Z_MSC_RDPS_Pressure_PVU-1.5_RLatLon0.09_PT022H.grib2 2026-04-16 02:49 2.4M
20260416T00Z_MSC_RDPS_Pressure_PVU-1_RLatLon0.09_PT022H.grib2 2026-04-16 02:49 2.4M
20260416T00Z_MSC_RDPS_Pressure_PVU-2_RLatLon0.09_PT022H.grib2 2026-04-16 02:49 2.4M
20260416T00Z_MSC_RDPS_Pressure_Sfc_RLatLon0.09_PT022H.grib2 2026-04-16 02:49 499K
20260416T00Z_MSC_RDPS_RadiativeTemp_Sfc_RLatLon0.09_PT022H.grib2 2026-04-16 02:49 324K
20260416T00Z_MSC_RDPS_Rain-Accum1h_Sfc_RLatLon0.09_PT022H.grib2 2026-04-16 02:49 512K
20260416T00Z_MSC_RDPS_Rain-Accum_Sfc_RLatLon0.09_PT022H.grib2 2026-04-16 02:49 1.4M
20260416T00Z_MSC_RDPS_RelativeHumidity_AGL-2m_RLatLon0.09_PT022H.grib2 2026-04-16 02:49 1.0M
20260416T00Z_MSC_RDPS_RelativeHumidity_IsbL-0010_RLatLon0.09_PT022H.grib2 2026-04-16 02:49 511K
20260416T00Z_MSC_RDPS_RelativeHumidity_IsbL-0020_RLatLon0.09_PT022H.grib2 2026-04-16 02:49 400K
20260416T00Z_MSC_RDPS_RelativeHumidity_IsbL-0030_RLatLon0.09_PT022H.grib2 2026-04-16 02:49 360K
20260416T00Z_MSC_RDPS_RelativeHumidity_IsbL-0050_RLatLon0.09_PT022H.grib2 2026-04-16 02:49 395K
20260416T00Z_MSC_RDPS_RelativeHumidity_IsbL-0100_RLatLon0.09_PT022H.grib2 2026-04-16 02:49 261K
20260416T00Z_MSC_RDPS_RelativeHumidity_IsbL-0150_RLatLon0.09_PT022H.grib2 2026-04-16 02:49 378K
20260416T00Z_MSC_RDPS_RelativeHumidity_IsbL-0175_RLatLon0.09_PT022H.grib2 2026-04-16 02:49 455K
20260416T00Z_MSC_RDPS_RelativeHumidity_IsbL-0200_RLatLon0.09_PT022H.grib2 2026-04-16 02:49 533K
20260416T00Z_MSC_RDPS_RelativeHumidity_IsbL-0225_RLatLon0.09_PT022H.grib2 2026-04-16 02:49 599K
20260416T00Z_MSC_RDPS_RelativeHumidity_IsbL-0250_RLatLon0.09_PT022H.grib2 2026-04-16 02:49 676K
20260416T00Z_MSC_RDPS_RelativeHumidity_IsbL-0275_RLatLon0.09_PT022H.grib2 2026-04-16 02:49 707K
20260416T00Z_MSC_RDPS_RelativeHumidity_IsbL-0300_RLatLon0.09_PT022H.grib2 2026-04-16 02:49 753K
20260416T00Z_MSC_RDPS_RelativeHumidity_IsbL-0350_RLatLon0.09_PT022H.grib2 2026-04-16 02:49 771K
20260416T00Z_MSC_RDPS_RelativeHumidity_IsbL-0400_RLatLon0.09_PT022H.grib2 2026-04-16 02:49 782K
20260416T00Z_MSC_RDPS_RelativeHumidity_IsbL-0450_RLatLon0.09_PT022H.grib2 2026-04-16 02:49 791K
20260416T00Z_MSC_RDPS_RelativeHumidity_IsbL-0500_RLatLon0.09_PT022H.grib2 2026-04-16 02:49 812K
20260416T00Z_MSC_RDPS_RelativeHumidity_IsbL-0550_RLatLon0.09_PT022H.grib2 2026-04-16 02:49 836K
20260416T00Z_MSC_RDPS_RelativeHumidity_IsbL-0600_RLatLon0.09_PT022H.grib2 2026-04-16 02:49 861K
20260416T00Z_MSC_RDPS_RelativeHumidity_IsbL-0650_RLatLon0.09_PT022H.grib2 2026-04-16 02:49 870K
20260416T00Z_MSC_RDPS_RelativeHumidity_IsbL-0700_RLatLon0.09_PT022H.grib2 2026-04-16 02:49 891K
20260416T00Z_MSC_RDPS_RelativeHumidity_IsbL-0750_RLatLon0.09_PT022H.grib2 2026-04-16 02:49 939K
20260416T00Z_MSC_RDPS_RelativeHumidity_IsbL-0800_RLatLon0.09_PT022H.grib2 2026-04-16 02:49 1.0M
20260416T00Z_MSC_RDPS_RelativeHumidity_IsbL-0850_RLatLon0.09_PT022H.grib2 2026-04-16 02:49 1.0M
20260416T00Z_MSC_RDPS_RelativeHumidity_IsbL-0875_RLatLon0.09_PT022H.grib2 2026-04-16 02:49 1.1M
20260416T00Z_MSC_RDPS_RelativeHumidity_IsbL-0900_RLatLon0.09_PT022H.grib2 2026-04-16 02:49 1.1M
20260416T00Z_MSC_RDPS_RelativeHumidity_IsbL-0925_RLatLon0.09_PT022H.grib2 2026-04-16 02:49 1.1M
20260416T00Z_MSC_RDPS_RelativeHumidity_IsbL-0950_RLatLon0.09_PT022H.grib2 2026-04-16 02:49 1.1M
20260416T00Z_MSC_RDPS_RelativeHumidity_IsbL-0970_RLatLon0.09_PT022H.grib2 2026-04-16 02:49 1.1M
20260416T00Z_MSC_RDPS_RelativeHumidity_IsbL-0985_RLatLon0.09_PT022H.grib2 2026-04-16 02:49 1.0M
20260416T00Z_MSC_RDPS_RelativeHumidity_IsbL-1000_RLatLon0.09_PT022H.grib2 2026-04-16 02:49 1.0M
20260416T00Z_MSC_RDPS_RelativeHumidity_IsbL-1015_RLatLon0.09_PT022H.grib2 2026-04-16 02:49 1.0M
20260416T00Z_MSC_RDPS_Runoff-Accum_Sfc_RLatLon0.09_PT022H.grib2 2026-04-16 02:49 49K
20260416T00Z_MSC_RDPS_SWEATIndex_Sfc_RLatLon0.09_PT022H.grib2 2026-04-16 02:49 2.4M
20260416T00Z_MSC_RDPS_SeeingIndex_EAtm_RLatLon0.09_PT022H.grib2 2026-04-16 02:49 1.0M
20260416T00Z_MSC_RDPS_SensibleHeatNetFlux_Sfc_RLatLon0.09_PT022H.grib2 2026-04-16 02:49 339K
20260416T00Z_MSC_RDPS_ShowalterIndex_IsbL-0500_RLatLon0.09_PT022H.grib2 2026-04-16 02:49 2.6M
20260416T00Z_MSC_RDPS_SkyTransparencyIndex_EAtm_RLatLon0.09_PT022H.grib2 2026-04-16 02:49 709K
20260416T00Z_MSC_RDPS_Snow-Accum1h_Sfc_RLatLon0.09_PT022H.grib2 2026-04-16 02:49 484K
20260416T00Z_MSC_RDPS_Snow-Accum_Sfc_RLatLon0.09_PT022H.grib2 2026-04-16 02:49 722K
20260416T00Z_MSC_RDPS_SnowDensity_Sfc_RLatLon0.09_PT022H.grib2 2026-04-16 02:49 174K
20260416T00Z_MSC_RDPS_SnowDepth_Sfc_RLatLon0.09_PT022H.grib2 2026-04-16 02:49 730K
20260416T00Z_MSC_RDPS_SoilTemp_DBS-0to10cm_RLatLon0.09_PT022H.grib2 2026-04-16 02:49 222K
20260416T00Z_MSC_RDPS_SoilTemp_Sfc_RLatLon0.09_PT022H.grib2 2026-04-16 02:49 273K
20260416T00Z_MSC_RDPS_SoilVolumetricIceContent_Sfc_RLatLon0.09_PT022H.grib2 2026-04-16 02:49 175K
20260416T00Z_MSC_RDPS_SoilVolumetricWaterContent_DBS-0to10cm_RLatLon0.09_PT022H.grib2 2026-04-16 02:49 245K
20260416T00Z_MSC_RDPS_SoilVolumetricWaterContent_DBS-0to1cm_RLatLon0.09_PT022H.grib2 2026-04-16 02:49 332K
20260416T00Z_MSC_RDPS_SpecificHumidity_AGL-120m_RLatLon0.09_PT022H.grib2 2026-04-16 02:49 484K
20260416T00Z_MSC_RDPS_SpecificHumidity_AGL-2m_RLatLon0.09_PT022H.grib2 2026-04-16 02:49 650K
20260416T00Z_MSC_RDPS_SpecificHumidity_AGL-40m_RLatLon0.09_PT022H.grib2 2026-04-16 02:49 488K
20260416T00Z_MSC_RDPS_SpecificHumidity_AGL-80m_RLatLon0.09_PT022H.grib2 2026-04-16 02:49 485K
20260416T00Z_MSC_RDPS_SpecificHumidity_IsbL-0001_RLatLon0.09_PT022H.grib2 2026-04-16 02:49 303K
20260416T00Z_MSC_RDPS_SpecificHumidity_IsbL-0005_RLatLon0.09_PT022H.grib2 2026-04-16 02:49 343K
20260416T00Z_MSC_RDPS_SpecificHumidity_IsbL-0010_RLatLon0.09_PT022H.grib2 2026-04-16 02:49 377K
20260416T00Z_MSC_RDPS_SpecificHumidity_IsbL-0020_RLatLon0.09_PT022H.grib2 2026-04-16 02:49 383K
20260416T00Z_MSC_RDPS_SpecificHumidity_IsbL-0030_RLatLon0.09_PT022H.grib2 2026-04-16 02:49 443K
20260416T00Z_MSC_RDPS_SpecificHumidity_IsbL-0050_RLatLon0.09_PT022H.grib2 2026-04-16 02:49 501K
20260416T00Z_MSC_RDPS_SpecificHumidity_IsbL-0100_RLatLon0.09_PT022H.grib2 2026-04-16 02:49 494K
20260416T00Z_MSC_RDPS_SpecificHumidity_IsbL-0150_RLatLon0.09_PT022H.grib2 2026-04-16 02:49 436K
20260416T00Z_MSC_RDPS_SpecificHumidity_IsbL-0175_RLatLon0.09_PT022H.grib2 2026-04-16 02:49 424K
20260416T00Z_MSC_RDPS_SpecificHumidity_IsbL-0200_RLatLon0.09_PT022H.grib2 2026-04-16 02:49 434K
20260416T00Z_MSC_RDPS_SpecificHumidity_IsbL-0225_RLatLon0.09_PT022H.grib2 2026-04-16 02:49 436K
20260416T00Z_MSC_RDPS_SpecificHumidity_IsbL-0250_RLatLon0.09_PT022H.grib2 2026-04-16 02:49 498K
20260416T00Z_MSC_RDPS_SpecificHumidity_IsbL-0275_RLatLon0.09_PT022H.grib2 2026-04-16 02:49 458K
20260416T00Z_MSC_RDPS_SpecificHumidity_IsbL-0300_RLatLon0.09_PT022H.grib2 2026-04-16 02:49 431K
20260416T00Z_MSC_RDPS_SpecificHumidity_IsbL-0350_RLatLon0.09_PT022H.grib2 2026-04-16 02:49 423K
20260416T00Z_MSC_RDPS_SpecificHumidity_IsbL-0400_RLatLon0.09_PT022H.grib2 2026-04-16 02:49 500K
20260416T00Z_MSC_RDPS_SpecificHumidity_IsbL-0450_RLatLon0.09_PT022H.grib2 2026-04-16 02:49 554K
20260416T00Z_MSC_RDPS_SpecificHumidity_IsbL-0500_RLatLon0.09_PT022H.grib2 2026-04-16 02:49 493K
20260416T00Z_MSC_RDPS_SpecificHumidity_IsbL-0550_RLatLon0.09_PT022H.grib2 2026-04-16 02:49 572K
20260416T00Z_MSC_RDPS_SpecificHumidity_IsbL-0600_RLatLon0.09_PT022H.grib2 2026-04-16 02:49 629K
20260416T00Z_MSC_RDPS_SpecificHumidity_IsbL-0650_RLatLon0.09_PT022H.grib2 2026-04-16 02:49 545K
20260416T00Z_MSC_RDPS_SpecificHumidity_IsbL-0700_RLatLon0.09_PT022H.grib2 2026-04-16 02:49 586K
20260416T00Z_MSC_RDPS_SpecificHumidity_IsbL-0750_RLatLon0.09_PT022H.grib2 2026-04-16 02:49 646K
20260416T00Z_MSC_RDPS_SpecificHumidity_IsbL-0800_RLatLon0.09_PT022H.grib2 2026-04-16 02:49 730K
20260416T00Z_MSC_RDPS_SpecificHumidity_IsbL-0850_RLatLon0.09_PT022H.grib2 2026-04-16 02:49 798K
20260416T00Z_MSC_RDPS_SpecificHumidity_IsbL-0875_RLatLon0.09_PT022H.grib2 2026-04-16 02:49 819K
20260416T00Z_MSC_RDPS_SpecificHumidity_IsbL-0900_RLatLon0.09_PT022H.grib2 2026-04-16 02:49 835K
20260416T00Z_MSC_RDPS_SpecificHumidity_IsbL-0925_RLatLon0.09_PT022H.grib2 2026-04-16 02:49 840K
20260416T00Z_MSC_RDPS_SpecificHumidity_IsbL-0950_RLatLon0.09_PT022H.grib2 2026-04-16 02:49 699K
20260416T00Z_MSC_RDPS_SpecificHumidity_IsbL-0970_RLatLon0.09_PT022H.grib2 2026-04-16 02:49 691K
20260416T00Z_MSC_RDPS_SpecificHumidity_IsbL-0985_RLatLon0.09_PT022H.grib2 2026-04-16 02:49 683K
20260416T00Z_MSC_RDPS_SpecificHumidity_IsbL-1000_RLatLon0.09_PT022H.grib2 2026-04-16 02:49 675K
20260416T00Z_MSC_RDPS_SpecificHumidity_IsbL-1015_RLatLon0.09_PT022H.grib2 2026-04-16 02:49 665K
20260416T00Z_MSC_RDPS_SpecificHumidity_Sfc_RLatLon0.09_PT022H.grib2 2026-04-16 02:49 327K
20260416T00Z_MSC_RDPS_StormRelativeHelicity_EtaL-10000_RLatLon0.09_PT022H.grib2 2026-04-16 02:49 1.1M
20260416T00Z_MSC_RDPS_StormSeverityIndex_EtaL-10000_RLatLon0.09_PT022H.grib2 2026-04-16 02:49 1.1M
20260416T00Z_MSC_RDPS_Thickness_IsbL-0850to0700_RLatLon0.09_PT022H.grib2 2026-04-16 02:49 174K
20260416T00Z_MSC_RDPS_Thickness_IsbL-1000to0500_RLatLon0.09_PT022H.grib2 2026-04-16 02:49 200K
20260416T00Z_MSC_RDPS_Thickness_IsbL-1000to0850_RLatLon0.09_PT022H.grib2 2026-04-16 02:49 186K
20260416T00Z_MSC_RDPS_TotalCloudCover_Sfc_RLatLon0.09_PT022H.grib2 2026-04-16 02:49 659K
20260416T00Z_MSC_RDPS_TotalTotalsIndex_Sfc_RLatLon0.09_PT022H.grib2 2026-04-16 02:49 2.4M
20260416T00Z_MSC_RDPS_UVIndex-ClearSky_Sfc_RLatLon0.09_PT022H.grib2 2026-04-16 02:49 165K
20260416T00Z_MSC_RDPS_UVIndex_Sfc_RLatLon0.09_PT022H.grib2 2026-04-16 02:49 381K
20260416T00Z_MSC_RDPS_UpwardLongwaveRadiationFlux_NTAtm_RLatLon0.09_PT022H.grib2 2026-04-16 02:49 487K
20260416T00Z_MSC_RDPS_UpwardShortwaveRadiationFlux_NTAtm_RLatLon0.09_PT022H.grib2 2026-04-16 02:49 430K
20260416T00Z_MSC_RDPS_VerticalVelocity_IsbL-0250_RLatLon0.09_PT022H.grib2 2026-04-16 02:49 572K
20260416T00Z_MSC_RDPS_VerticalVelocity_IsbL-0500_RLatLon0.09_PT022H.grib2 2026-04-16 02:49 535K
20260416T00Z_MSC_RDPS_VerticalVelocity_IsbL-0700_RLatLon0.09_PT022H.grib2 2026-04-16 02:49 587K
20260416T00Z_MSC_RDPS_VerticalVelocity_IsbL-0850_RLatLon0.09_PT022H.grib2 2026-04-16 02:49 679K
20260416T00Z_MSC_RDPS_VerticalWindShear_EtaL-6500_RLatLon0.09_PT022H.grib2 2026-04-16 02:49 1.2M
20260416T00Z_MSC_RDPS_WindChill_Sfc_RLatLon0.09_PT022H.grib2 2026-04-16 02:49 1.1M
20260416T00Z_MSC_RDPS_WindDir_AGL-10m_RLatLon0.09_PT022H.grib2 2026-04-16 02:49 1.0M
20260416T00Z_MSC_RDPS_WindDir_AGL-120m_RLatLon0.09_PT022H.grib2 2026-04-16 02:49 615K
20260416T00Z_MSC_RDPS_WindDir_AGL-40m_RLatLon0.09_PT022H.grib2 2026-04-16 02:49 638K
20260416T00Z_MSC_RDPS_WindDir_AGL-80m_RLatLon0.09_PT022H.grib2 2026-04-16 02:49 624K
20260416T00Z_MSC_RDPS_WindDir_IsbL-0001_RLatLon0.09_PT022H.grib2 2026-04-16 02:49 246K
20260416T00Z_MSC_RDPS_WindDir_IsbL-0005_RLatLon0.09_PT022H.grib2 2026-04-16 02:49 353K
20260416T00Z_MSC_RDPS_WindDir_IsbL-0010_RLatLon0.09_PT022H.grib2 2026-04-16 02:49 353K
20260416T00Z_MSC_RDPS_WindDir_IsbL-0020_RLatLon0.09_PT022H.grib2 2026-04-16 02:49 369K
20260416T00Z_MSC_RDPS_WindDir_IsbL-0030_RLatLon0.09_PT022H.grib2 2026-04-16 02:49 374K
20260416T00Z_MSC_RDPS_WindDir_IsbL-0050_RLatLon0.09_PT022H.grib2 2026-04-16 02:49 400K
20260416T00Z_MSC_RDPS_WindDir_IsbL-0100_RLatLon0.09_PT022H.grib2 2026-04-16 02:49 390K
20260416T00Z_MSC_RDPS_WindDir_IsbL-0150_RLatLon0.09_PT022H.grib2 2026-04-16 02:49 378K
20260416T00Z_MSC_RDPS_WindDir_IsbL-0175_RLatLon0.09_PT022H.grib2 2026-04-16 02:49 402K
20260416T00Z_MSC_RDPS_WindDir_IsbL-0200_RLatLon0.09_PT022H.grib2 2026-04-16 02:49 416K
20260416T00Z_MSC_RDPS_WindDir_IsbL-0225_RLatLon0.09_PT022H.grib2 2026-04-16 02:49 427K
20260416T00Z_MSC_RDPS_WindDir_IsbL-0250_RLatLon0.09_PT022H.grib2 2026-04-16 02:49 433K
20260416T00Z_MSC_RDPS_WindDir_IsbL-0275_RLatLon0.09_PT022H.grib2 2026-04-16 02:49 452K
20260416T00Z_MSC_RDPS_WindDir_IsbL-0300_RLatLon0.09_PT022H.grib2 2026-04-16 02:49 454K
20260416T00Z_MSC_RDPS_WindDir_IsbL-0350_RLatLon0.09_PT022H.grib2 2026-04-16 02:49 479K
20260416T00Z_MSC_RDPS_WindDir_IsbL-0400_RLatLon0.09_PT022H.grib2 2026-04-16 02:49 496K
20260416T00Z_MSC_RDPS_WindDir_IsbL-0450_RLatLon0.09_PT022H.grib2 2026-04-16 02:49 515K
20260416T00Z_MSC_RDPS_WindDir_IsbL-0500_RLatLon0.09_PT022H.grib2 2026-04-16 02:49 541K
20260416T00Z_MSC_RDPS_WindDir_IsbL-0550_RLatLon0.09_PT022H.grib2 2026-04-16 02:49 566K
20260416T00Z_MSC_RDPS_WindDir_IsbL-0600_RLatLon0.09_PT022H.grib2 2026-04-16 02:49 589K
20260416T00Z_MSC_RDPS_WindDir_IsbL-0650_RLatLon0.09_PT022H.grib2 2026-04-16 02:49 627K
20260416T00Z_MSC_RDPS_WindDir_IsbL-0700_RLatLon0.09_PT022H.grib2 2026-04-16 02:49 670K
20260416T00Z_MSC_RDPS_WindDir_IsbL-0750_RLatLon0.09_PT022H.grib2 2026-04-16 02:49 719K
20260416T00Z_MSC_RDPS_WindDir_IsbL-0800_RLatLon0.09_PT022H.grib2 2026-04-16 02:49 785K
20260416T00Z_MSC_RDPS_WindDir_IsbL-0850_RLatLon0.09_PT022H.grib2 2026-04-16 02:49 858K
20260416T00Z_MSC_RDPS_WindDir_IsbL-0875_RLatLon0.09_PT022H.grib2 2026-04-16 02:49 887K
20260416T00Z_MSC_RDPS_WindDir_IsbL-0900_RLatLon0.09_PT022H.grib2 2026-04-16 02:49 910K
20260416T00Z_MSC_RDPS_WindDir_IsbL-0925_RLatLon0.09_PT022H.grib2 2026-04-16 02:49 921K
20260416T00Z_MSC_RDPS_WindDir_IsbL-0950_RLatLon0.09_PT022H.grib2 2026-04-16 02:49 924K
20260416T00Z_MSC_RDPS_WindDir_IsbL-0970_RLatLon0.09_PT022H.grib2 2026-04-16 02:49 927K
20260416T00Z_MSC_RDPS_WindDir_IsbL-0985_RLatLon0.09_PT022H.grib2 2026-04-16 02:49 936K
20260416T00Z_MSC_RDPS_WindDir_IsbL-1000_RLatLon0.09_PT022H.grib2 2026-04-16 02:49 951K
20260416T00Z_MSC_RDPS_WindDir_IsbL-1015_RLatLon0.09_PT022H.grib2 2026-04-16 02:49 967K
20260416T00Z_MSC_RDPS_WindGust-Max_AGL-10m_RLatLon0.09_PT022H.grib2 2026-04-16 02:49 942K
20260416T00Z_MSC_RDPS_WindGust-Min_AGL-10m_RLatLon0.09_PT022H.grib2 2026-04-16 02:49 965K
20260416T00Z_MSC_RDPS_WindGust_AGL-10m_RLatLon0.09_PT022H.grib2 2026-04-16 02:49 1.0M
20260416T00Z_MSC_RDPS_WindSpeed_AGL-10m_RLatLon0.09_PT022H.grib2 2026-04-16 02:49 843K
20260416T00Z_MSC_RDPS_WindSpeed_AGL-120m_RLatLon0.09_PT022H.grib2 2026-04-16 02:49 534K
20260416T00Z_MSC_RDPS_WindSpeed_AGL-40m_RLatLon0.09_PT022H.grib2 2026-04-16 02:49 669K
20260416T00Z_MSC_RDPS_WindSpeed_AGL-80m_RLatLon0.09_PT022H.grib2 2026-04-16 02:49 665K
20260416T00Z_MSC_RDPS_WindSpeed_IsbL-0001_RLatLon0.09_PT022H.grib2 2026-04-16 02:49 291K
20260416T00Z_MSC_RDPS_WindSpeed_IsbL-0005_RLatLon0.09_PT022H.grib2 2026-04-16 02:49 337K
20260416T00Z_MSC_RDPS_WindSpeed_IsbL-0010_RLatLon0.09_PT022H.grib2 2026-04-16 02:49 346K
20260416T00Z_MSC_RDPS_WindSpeed_IsbL-0020_RLatLon0.09_PT022H.grib2 2026-04-16 02:49 368K
20260416T00Z_MSC_RDPS_WindSpeed_IsbL-0030_RLatLon0.09_PT022H.grib2 2026-04-16 02:49 333K
20260416T00Z_MSC_RDPS_WindSpeed_IsbL-0050_RLatLon0.09_PT022H.grib2 2026-04-16 02:49 375K
20260416T00Z_MSC_RDPS_WindSpeed_IsbL-0100_RLatLon0.09_PT022H.grib2 2026-04-16 02:49 488K
20260416T00Z_MSC_RDPS_WindSpeed_IsbL-0150_RLatLon0.09_PT022H.grib2 2026-04-16 02:49 368K
20260416T00Z_MSC_RDPS_WindSpeed_IsbL-0175_RLatLon0.09_PT022H.grib2 2026-04-16 02:49 391K
20260416T00Z_MSC_RDPS_WindSpeed_IsbL-0200_RLatLon0.09_PT022H.grib2 2026-04-16 02:49 413K
20260416T00Z_MSC_RDPS_WindSpeed_IsbL-0225_RLatLon0.09_PT022H.grib2 2026-04-16 02:49 441K
20260416T00Z_MSC_RDPS_WindSpeed_IsbL-0250_RLatLon0.09_PT022H.grib2 2026-04-16 02:49 444K
20260416T00Z_MSC_RDPS_WindSpeed_IsbL-0275_RLatLon0.09_PT022H.grib2 2026-04-16 02:49 461K
20260416T00Z_MSC_RDPS_WindSpeed_IsbL-0300_RLatLon0.09_PT022H.grib2 2026-04-16 02:49 460K
20260416T00Z_MSC_RDPS_WindSpeed_IsbL-0350_RLatLon0.09_PT022H.grib2 2026-04-16 02:49 472K
20260416T00Z_MSC_RDPS_WindSpeed_IsbL-0400_RLatLon0.09_PT022H.grib2 2026-04-16 02:49 456K
20260416T00Z_MSC_RDPS_WindSpeed_IsbL-0450_RLatLon0.09_PT022H.grib2 2026-04-16 02:49 453K
20260416T00Z_MSC_RDPS_WindSpeed_IsbL-0500_RLatLon0.09_PT022H.grib2 2026-04-16 02:49 572K
20260416T00Z_MSC_RDPS_WindSpeed_IsbL-0550_RLatLon0.09_PT022H.grib2 2026-04-16 02:49 575K
20260416T00Z_MSC_RDPS_WindSpeed_IsbL-0600_RLatLon0.09_PT022H.grib2 2026-04-16 02:49 587K
20260416T00Z_MSC_RDPS_WindSpeed_IsbL-0650_RLatLon0.09_PT022H.grib2 2026-04-16 02:49 651K
20260416T00Z_MSC_RDPS_WindSpeed_IsbL-0700_RLatLon0.09_PT022H.grib2 2026-04-16 02:49 672K
20260416T00Z_MSC_RDPS_WindSpeed_IsbL-0750_RLatLon0.09_PT022H.grib2 2026-04-16 02:49 701K
20260416T00Z_MSC_RDPS_WindSpeed_IsbL-0800_RLatLon0.09_PT022H.grib2 2026-04-16 02:49 752K
20260416T00Z_MSC_RDPS_WindSpeed_IsbL-0850_RLatLon0.09_PT022H.grib2 2026-04-16 02:49 806K
20260416T00Z_MSC_RDPS_WindSpeed_IsbL-0875_RLatLon0.09_PT022H.grib2 2026-04-16 02:49 836K
20260416T00Z_MSC_RDPS_WindSpeed_IsbL-0900_RLatLon0.09_PT022H.grib2 2026-04-16 02:49 855K
20260416T00Z_MSC_RDPS_WindSpeed_IsbL-0925_RLatLon0.09_PT022H.grib2 2026-04-16 02:49 860K
20260416T00Z_MSC_RDPS_WindSpeed_IsbL-0950_RLatLon0.09_PT022H.grib2 2026-04-16 02:49 860K
20260416T00Z_MSC_RDPS_WindSpeed_IsbL-0970_RLatLon0.09_PT022H.grib2 2026-04-16 02:49 857K
20260416T00Z_MSC_RDPS_WindSpeed_IsbL-0985_RLatLon0.09_PT022H.grib2 2026-04-16 02:49 855K
20260416T00Z_MSC_RDPS_WindSpeed_IsbL-1000_RLatLon0.09_PT022H.grib2 2026-04-16 02:49 852K
20260416T00Z_MSC_RDPS_WindSpeed_IsbL-1015_RLatLon0.09_PT022H.grib2 2026-04-16 02:49 844K
20260416T00Z_MSC_RDPS_WindU_AGL-10m_RLatLon0.09_PT022H.grib2 2026-04-16 02:49 435K
20260416T00Z_MSC_RDPS_WindU_AGL-120m_RLatLon0.09_PT022H.grib2 2026-04-16 02:49 534K
20260416T00Z_MSC_RDPS_WindU_AGL-40m_RLatLon0.09_PT022H.grib2 2026-04-16 02:49 538K
20260416T00Z_MSC_RDPS_WindU_AGL-80m_RLatLon0.09_PT022H.grib2 2026-04-16 02:49 536K
20260416T00Z_MSC_RDPS_WindU_IsbL-0001_RLatLon0.09_PT022H.grib2 2026-04-16 02:49 263K
20260416T00Z_MSC_RDPS_WindU_IsbL-0005_RLatLon0.09_PT022H.grib2 2026-04-16 02:49 329K
20260416T00Z_MSC_RDPS_WindU_IsbL-0010_RLatLon0.09_PT022H.grib2 2026-04-16 02:49 312K
20260416T00Z_MSC_RDPS_WindU_IsbL-0020_RLatLon0.09_PT022H.grib2 2026-04-16 02:49 257K
20260416T00Z_MSC_RDPS_WindU_IsbL-0030_RLatLon0.09_PT022H.grib2 2026-04-16 02:49 258K
20260416T00Z_MSC_RDPS_WindU_IsbL-0050_RLatLon0.09_PT022H.grib2 2026-04-16 02:49 367K
20260416T00Z_MSC_RDPS_WindU_IsbL-0100_RLatLon0.09_PT022H.grib2 2026-04-16 02:49 343K
20260416T00Z_MSC_RDPS_WindU_IsbL-0150_RLatLon0.09_PT022H.grib2 2026-04-16 02:49 386K
20260416T00Z_MSC_RDPS_WindU_IsbL-0175_RLatLon0.09_PT022H.grib2 2026-04-16 02:49 406K
20260416T00Z_MSC_RDPS_WindU_IsbL-0200_RLatLon0.09_PT022H.grib2 2026-04-16 02:49 426K
20260416T00Z_MSC_RDPS_WindU_IsbL-0225_RLatLon0.09_PT022H.grib2 2026-04-16 02:49 433K
20260416T00Z_MSC_RDPS_WindU_IsbL-0250_RLatLon0.09_PT022H.grib2 2026-04-16 02:49 435K
20260416T00Z_MSC_RDPS_WindU_IsbL-0275_RLatLon0.09_PT022H.grib2 2026-04-16 02:49 453K
20260416T00Z_MSC_RDPS_WindU_IsbL-0300_RLatLon0.09_PT022H.grib2 2026-04-16 02:49 349K
20260416T00Z_MSC_RDPS_WindU_IsbL-0350_RLatLon0.09_PT022H.grib2 2026-04-16 02:49 459K
20260416T00Z_MSC_RDPS_WindU_IsbL-0400_RLatLon0.09_PT022H.grib2 2026-04-16 02:49 461K
20260416T00Z_MSC_RDPS_WindU_IsbL-0450_RLatLon0.09_PT022H.grib2 2026-04-16 02:49 460K
20260416T00Z_MSC_RDPS_WindU_IsbL-0500_RLatLon0.09_PT022H.grib2 2026-04-16 02:49 463K
20260416T00Z_MSC_RDPS_WindU_IsbL-0550_RLatLon0.09_PT022H.grib2 2026-04-16 02:49 467K
20260416T00Z_MSC_RDPS_WindU_IsbL-0600_RLatLon0.09_PT022H.grib2 2026-04-16 02:49 478K
20260416T00Z_MSC_RDPS_WindU_IsbL-0650_RLatLon0.09_PT022H.grib2 2026-04-16 02:49 479K
20260416T00Z_MSC_RDPS_WindU_IsbL-0700_RLatLon0.09_PT022H.grib2 2026-04-16 02:49 498K
20260416T00Z_MSC_RDPS_WindU_IsbL-0750_RLatLon0.09_PT022H.grib2 2026-04-16 02:49 524K
20260416T00Z_MSC_RDPS_WindU_IsbL-0800_RLatLon0.09_PT022H.grib2 2026-04-16 02:49 568K
20260416T00Z_MSC_RDPS_WindU_IsbL-0850_RLatLon0.09_PT022H.grib2 2026-04-16 02:49 619K
20260416T00Z_MSC_RDPS_WindU_IsbL-0875_RLatLon0.09_PT022H.grib2 2026-04-16 02:49 641K
20260416T00Z_MSC_RDPS_WindU_IsbL-0900_RLatLon0.09_PT022H.grib2 2026-04-16 02:49 655K
20260416T00Z_MSC_RDPS_WindU_IsbL-0925_RLatLon0.09_PT022H.grib2 2026-04-16 02:49 661K
20260416T00Z_MSC_RDPS_WindU_IsbL-0950_RLatLon0.09_PT022H.grib2 2026-04-16 02:49 800K
20260416T00Z_MSC_RDPS_WindU_IsbL-0970_RLatLon0.09_PT022H.grib2 2026-04-16 02:49 796K
20260416T00Z_MSC_RDPS_WindU_IsbL-0985_RLatLon0.09_PT022H.grib2 2026-04-16 02:49 795K
20260416T00Z_MSC_RDPS_WindU_IsbL-1000_RLatLon0.09_PT022H.grib2 2026-04-16 02:49 840K
20260416T00Z_MSC_RDPS_WindU_IsbL-1015_RLatLon0.09_PT022H.grib2 2026-04-16 02:49 833K
20260416T00Z_MSC_RDPS_WindV_AGL-10m_RLatLon0.09_PT022H.grib2 2026-04-16 02:49 432K
20260416T00Z_MSC_RDPS_WindV_AGL-120m_RLatLon0.09_PT022H.grib2 2026-04-16 02:49 530K
20260416T00Z_MSC_RDPS_WindV_AGL-40m_RLatLon0.09_PT022H.grib2 2026-04-16 02:49 534K
20260416T00Z_MSC_RDPS_WindV_AGL-80m_RLatLon0.09_PT022H.grib2 2026-04-16 02:49 532K
20260416T00Z_MSC_RDPS_WindV_IsbL-0001_RLatLon0.09_PT022H.grib2 2026-04-16 02:49 206K
20260416T00Z_MSC_RDPS_WindV_IsbL-0005_RLatLon0.09_PT022H.grib2 2026-04-16 02:49 299K
20260416T00Z_MSC_RDPS_WindV_IsbL-0010_RLatLon0.09_PT022H.grib2 2026-04-16 02:49 309K
20260416T00Z_MSC_RDPS_WindV_IsbL-0020_RLatLon0.09_PT022H.grib2 2026-04-16 02:49 360K
20260416T00Z_MSC_RDPS_WindV_IsbL-0030_RLatLon0.09_PT022H.grib2 2026-04-16 02:49 327K
20260416T00Z_MSC_RDPS_WindV_IsbL-0050_RLatLon0.09_PT022H.grib2 2026-04-16 02:49 367K
20260416T00Z_MSC_RDPS_WindV_IsbL-0100_RLatLon0.09_PT022H.grib2 2026-04-16 02:49 435K
20260416T00Z_MSC_RDPS_WindV_IsbL-0150_RLatLon0.09_PT022H.grib2 2026-04-16 02:49 384K
20260416T00Z_MSC_RDPS_WindV_IsbL-0175_RLatLon0.09_PT022H.grib2 2026-04-16 02:49 407K
20260416T00Z_MSC_RDPS_WindV_IsbL-0200_RLatLon0.09_PT022H.grib2 2026-04-16 02:49 426K
20260416T00Z_MSC_RDPS_WindV_IsbL-0225_RLatLon0.09_PT022H.grib2 2026-04-16 02:49 336K
20260416T00Z_MSC_RDPS_WindV_IsbL-0250_RLatLon0.09_PT022H.grib2 2026-04-16 02:49 337K
20260416T00Z_MSC_RDPS_WindV_IsbL-0275_RLatLon0.09_PT022H.grib2 2026-04-16 02:49 349K
20260416T00Z_MSC_RDPS_WindV_IsbL-0300_RLatLon0.09_PT022H.grib2 2026-04-16 02:49 346K
20260416T00Z_MSC_RDPS_WindV_IsbL-0350_RLatLon0.09_PT022H.grib2 2026-04-16 02:49 355K
20260416T00Z_MSC_RDPS_WindV_IsbL-0400_RLatLon0.09_PT022H.grib2 2026-04-16 02:49 458K
20260416T00Z_MSC_RDPS_WindV_IsbL-0450_RLatLon0.09_PT022H.grib2 2026-04-16 02:49 458K
20260416T00Z_MSC_RDPS_WindV_IsbL-0500_RLatLon0.09_PT022H.grib2 2026-04-16 02:49 460K
20260416T00Z_MSC_RDPS_WindV_IsbL-0550_RLatLon0.09_PT022H.grib2 2026-04-16 02:49 464K
20260416T00Z_MSC_RDPS_WindV_IsbL-0600_RLatLon0.09_PT022H.grib2 2026-04-16 02:49 456K
20260416T00Z_MSC_RDPS_WindV_IsbL-0650_RLatLon0.09_PT022H.grib2 2026-04-16 02:49 474K
20260416T00Z_MSC_RDPS_WindV_IsbL-0700_RLatLon0.09_PT022H.grib2 2026-04-16 02:49 493K
20260416T00Z_MSC_RDPS_WindV_IsbL-0750_RLatLon0.09_PT022H.grib2 2026-04-16 02:49 518K
20260416T00Z_MSC_RDPS_WindV_IsbL-0800_RLatLon0.09_PT022H.grib2 2026-04-16 02:49 562K
20260416T00Z_MSC_RDPS_WindV_IsbL-0850_RLatLon0.09_PT022H.grib2 2026-04-16 02:49 614K
20260416T00Z_MSC_RDPS_WindV_IsbL-0875_RLatLon0.09_PT022H.grib2 2026-04-16 02:49 635K
20260416T00Z_MSC_RDPS_WindV_IsbL-0900_RLatLon0.09_PT022H.grib2 2026-04-16 02:49 651K
20260416T00Z_MSC_RDPS_WindV_IsbL-0925_RLatLon0.09_PT022H.grib2 2026-04-16 02:49 658K
20260416T00Z_MSC_RDPS_WindV_IsbL-0950_RLatLon0.09_PT022H.grib2 2026-04-16 02:49 656K
20260416T00Z_MSC_RDPS_WindV_IsbL-0970_RLatLon0.09_PT022H.grib2 2026-04-16 02:49 651K
20260416T00Z_MSC_RDPS_WindV_IsbL-0985_RLatLon0.09_PT022H.grib2 2026-04-16 02:49 789K
20260416T00Z_MSC_RDPS_WindV_IsbL-1000_RLatLon0.09_PT022H.grib2 2026-04-16 02:49 787K
20260416T00Z_MSC_RDPS_WindV_IsbL-1015_RLatLon0.09_PT022H.grib2 2026-04-16 02:49 781K